Weather History for Brainerd, MN

Change the Weather History Date:

Saturday, January 11, 2014

  Actual Average Record
Temperature  
Mean Temperature 37 °F -  
Max Temperature 55 °F 16 °F 55 °F (2014)
Min Temperature 19 °F -8 °F -38 °F (1977)
Degree Days  
Heating Degree Days 28    
Moisture  
Dew Point 20 °F    
Average Humidity 57    
Maximum Humidity 80    
Minimum Humidity 31    
Precipitation  
Precipitation 0.00 in - - ()
Sea Level Pressure  
Sea Level Pressure 29.53 in    
Wind  
Wind Speed 7 mph (West)    
Max Wind Speed 12 mph    
Max Gust Speed 18 mph    
Visibility 5 miles    
Events      
Averages and records for this station are not official NWS values.
T = Trace of Precipitation, MM = Missing Value Source: NWS Daily Summary

Daily Weather History Graph

Daily Weather History Graph

Search for Another Location

Airport:

Trip Planner

Search our weather history database for the weather conditions in past years. The results will help you decide how hot, cold, wet, or windy it might be!

Date:

Astronomy

Jan. 11, 2014 Rise Set
Actual Time 7:57 AM CST 4:51 PM CST
Civil Twilight 7:23 AM CST 5:25 PM CST
Nautical Twilight 6:46 AM CST 6:03 PM CST
Astronomical Twilight 6:09 AM CST 6:39 PM CST
Moon 1:38 PM CST (1/11) 4:00 AM CST (1/11)
Length of Visible Light 10h 01m
Length of Day
8h 53m
Waxing Gibbous, 83% of the Moon is Illuminated
Jan 11
Waxing Gibbous
Jan 15
Full
Jan 23
Last Quarter
Jan 30
New
Feb 6
First Quarter

Hourly Weather History & Observations

Time (CST) Temp. Windchill Dew Point Humidity Pressure Visibility Wind Dir Wind Speed Gust Speed Precip Events Conditions
12:17 AM 46.4 °F 45.2 °F 26.6 °F 46% 29.44 in 2.0 mi SW 3.5 mph - N/A   Haze
12:37 AM 51.8 °F - 24.8 °F 35% 29.44 in 3.0 mi WSW 8.1 mph - N/A   Haze
12:53 AM 48.0 °F - 24.1 °F 39% 29.47 in 3.0 mi West 3.5 mph - N/A   Haze
1:15 AM 55.4 °F - 24.8 °F 31% 29.43 in 3.0 mi West 8.1 mph - N/A   Haze
1:53 AM 52.0 °F - 24.1 °F 34% 29.46 in 4.0 mi West 5.8 mph - N/A   Haze
2:53 AM 42.1 °F 39.2 °F 23.0 °F 47% 29.47 in 4.0 mi West 4.6 mph - N/A   Haze
3:29 AM 44.6 °F 41.4 °F 23.0 °F 43% 29.44 in 4.0 mi West 5.8 mph - N/A   Haze
3:53 AM 44.1 °F 40.1 °F 21.9 °F 42% 29.48 in 5.0 mi West 6.9 mph - N/A   Haze
4:20 AM 46.4 °F 44.3 °F 21.2 °F 37% 29.45 in 5.0 mi West 4.6 mph - N/A   Haze
4:51 AM 48.2 °F - 21.2 °F 34% 29.45 in 5.0 mi West 6.9 mph - N/A   Haze
4:53 AM 50.0 °F - 21.9 °F 33% 29.48 in 5.0 mi West 6.9 mph - N/A   Haze
5:18 AM 48.2 °F - 21.2 °F 34% 29.45 in 4.0 mi West 6.9 mph - N/A   Haze
5:29 AM 48.2 °F - 21.2 °F 34% 29.45 in 4.0 mi West 6.9 mph - N/A   Haze
5:53 AM 43.0 °F 38.8 °F 23.0 °F 45% 29.49 in 4.0 mi WNW 6.9 mph - N/A   Haze
6:53 AM - - - N/A% 29.48 in 3.0 mi West 9.2 mph - N/A   Overcast
7:53 AM - - - N/A% 29.50 in 5.0 mi NW 10.4 mph - N/A   Haze
8:53 AM - - - N/A% 29.53 in 5.0 mi WNW 9.2 mph - N/A   Haze
9:30 AM - - - N/A% 29.54 in 6.0 mi NW 10.4 mph - N/A   Haze
9:53 AM - - - N/A% 29.55 in 6.0 mi NNW 11.5 mph - N/A   Haze
10:00 AM - - - N/A% 29.55 in 6.0 mi NW 10.4 mph - N/A   Haze
10:53 AM - - - N/A% 29.57 in 6.0 mi West 11.5 mph - N/A   Haze
11:53 AM - - - N/A% 29.57 in 5.0 mi WNW 6.9 mph - N/A   Haze
12:16 PM - - - N/A% 29.57 in 2.0 mi WNW 9.2 mph 18.4 mph N/A   Overcast
12:26 PM - - - N/A% 29.56 in 6.0 mi WNW 10.4 mph - N/A   Haze
12:42 PM - - - N/A% 29.56 in 6.0 mi WNW 8.1 mph - N/A   Haze
12:53 PM - - - N/A% 29.55 in 6.0 mi Variable 6.9 mph - N/A   Haze
1:53 PM 30.0 °F 22.4 °F 21.0 °F 69% 29.58 in 7.0 mi West 8.1 mph 18.4 mph N/A   Mostly Cloudy
2:53 PM 30.0 °F 20.5 °F 21.0 °F 69% 29.60 in 6.0 mi West 11.5 mph - N/A   Haze
3:53 PM 28.9 °F 19.2 °F 21.0 °F 72% 29.62 in 7.0 mi West 11.5 mph - N/A   Overcast
4:24 PM 28.4 °F 21.2 °F 21.2 °F 74% 29.59 in 7.0 mi West 6.9 mph - N/A   Scattered Clouds
4:53 PM 27.0 °F 23.0 °F 19.0 °F 72% 29.63 in 7.0 mi West 3.5 mph - N/A   Clear
5:53 PM 23.0 °F 15.8 °F 17.1 °F 78% 29.64 in 6.0 mi SSW 5.8 mph - N/A   Haze
6:53 PM 19.9 °F 12.1 °F 14.0 °F 78% 29.59 in 3.0 mi SW 5.8 mph - N/A   Haze
7:06 PM 19.4 °F 11.5 °F 14.0 °F 80% 29.60 in 2.5 mi WSW 5.8 mph - N/A   Haze
7:16 PM 19.4 °F 10.4 °F 14.0 °F 80% 29.60 in 4.0 mi SW 6.9 mph - N/A   Haze
7:53 PM 19.0 °F - 12.9 °F 77% 29.59 in 5.0 mi Calm Calm - N/A   Haze
8:53 PM 19.0 °F 12.3 °F 12.9 °F 77% 29.59 in 3.0 mi SSW 4.6 mph - N/A   Haze
9:53 PM 19.9 °F 13.4 °F 14.0 °F 78% 29.57 in 5.0 mi SSW 4.6 mph - N/A   Haze
10:53 PM 21.9 °F 17.2 °F 16.0 °F 78% 29.55 in 5.0 mi SSW 3.5 mph - N/A   Haze
11:53 PM 23.0 °F 14.7 °F 17.1 °F 78% 29.54 in 5.0 mi South 6.9 mph - N/A   Haze